This demonstration page uses our WeatherBlox Daily Observations layout. Learn more.

Left ArrowRight Arrow

39.01783, -85.05884

Hourly Observations for December 31, 2016

Temp ( °F °C ) Dew Point ( °F °C ) Humidity (%) Winds ( mph kmh ) Pressure ( in mb ) Visibility ( mi km ) Precip ( " mm )
12:52 am 00:52 Mostly Cloudy 31 -0.6 18 -7.8 59 59 S 9 15 29.99 1016 10 16 N/A
1:52 am 01:52 Cloudy 31 -0.6 18 -7.8 59 59 SSW 10 17 29.96 1015 10 16 N/A
2:52 am 02:52 Mostly Cloudy 32 undefined 18 -7.8 56 56 S 9 15 29.95 1014 10 16 N/A
3:52 am 03:52 Clear 31 -0.6 18 -7.8 59 59 S 9 15 29.93 1014 10 16 N/A
4:52 am 04:52 Clear 30 -1.1 18 -7.8 61 61 S 9 15 29.91 1013 10 16 N/A
5:52 am 05:52 Partly Cloudy 31 -0.6 18 -7.8 59 59 S 10 17 29.88 1012 10 16 N/A
6:52 am 06:52 Cloudy 37 2.8 17 -8.3 44 44 SSW 15 24 29.86 1011 10 16 N/A
7:52 am 07:52 Cloudy 39 3.9 17 -8.3 41 41 SSW 17 28 29.85 1011 10 16 N/A
8:52 am 08:52 Mostly Cloudy 41 5 18 -7.8 39 39 SW 14 22 29.85 1011 10 16 N/A
9:52 am 09:52 Mostly Cloudy 42 5.6 19 -7.2 40 40 SSW 15 24 29.85 1011 10 16 N/A
10:52 am 10:52 Mostly Cloudy 43 6.1 22 -5.6 43 43 SSW 23 37 29.85 1011 10 16 N/A
11:52 am 11:52 Mostly Cloudy 43 6.1 29 -1.7 58 58 SSW 18 30 29.85 1011 10 16 N/A
12:52 pm 12:52 Cloudy 42 5.6 34 1.1 73 73 SW 18 30 29.83 1010 10 16 N/A
1:52 pm 13:52 Cloudy 42 5.6 34 1.1 73 73 SW 18 30 29.83 1010 10 16 N/A
2:52 pm 14:52 Cloudy 41 5 34 1.1 76 76 SSW 13 20 29.82 1010 10 16 N/A
3:52 pm 15:52 Cloudy 41 5 35 1.7 79 79 SSW 13 20 29.83 1010 10 16 N/A
4:52 pm 16:52 Cloudy 40 4.4 37 2.8 89 89 SW 13 20 29.84 1011 10 16 0.01 0.25
5:12 pm 17:12 Cloudy with Light Rain 39 4 37 3 93 93 SW 13 20 29.85 1011 10 16 N/A
5:52 pm 17:52 Cloudy 40 4.4 37 2.8 89 89 SSW 9 15 29.86 1011 10 16 N/A
6:52 pm 18:52 Cloudy 40 4.4 37 2.8 89 89 SSW 12 19 29.87 1012 10 16 N/A
7:52 pm 19:52 Cloudy 40 4.4 37 2.8 89 89 SW 9 15 29.90 1013 10 16 N/A
8:52 pm 20:52 Cloudy 40 4.4 37 2.8 89 89 SSW 13 20 29.93 1013 10 16 N/A
9:52 pm 21:52 Cloudy 40 4.4 37 2.8 89 89 SW 6 9 29.96 1014 10 16 N/A
10:06 pm 22:06 Cloudy 39 4 37 3 93 93 SSW 6 9 29.97 1015 10 16 N/A
10:24 pm 22:24 Cloudy 39 4 37 3 93 93 SSW 8 13 29.97 1015 10 16 N/A
10:52 pm 22:52 Cloudy 40 4.4 37 2.8 89 89 SSW 8 13 29.96 1015 10 16 N/A
11:52 pm 23:52 Cloudy 39 3.9 37 2.8 93 93 SSW 6 9 29.99 1016 8 13 N/A

Powered by AerisWeather